Terminal Aerodrome Forecast
Issued by NWS Grand Forks, ND

Home | Current Version | Previous Version | Graphics & Text | Print | Product List | Glossary On
Versions: 1 2 3 4 5 6 7 8 9 10 11 12 13
480
FTUS43 KFGF 160520
TAFGFK
TAF
KGFK 160520Z 1606/1706 25006KT P6SM FEW200
     FM161800 22015G23KT P6SM FEW250
     FM162300 26011KT P6SM FEW250=

USA.gov is the U.S. government's official web portal to all federal, state and local government web resources and services.